www.pogodaiklimat.ru

Погода и климат >> Архив погоды >> Кувейт >> Experimental Farm


ПОГОДА в Experimental Farm

  • Прогноз погоды в Experimental Farm
  • Монитор погоды в Experimental Farm
  • Климат города

АРХИВ ПОГОДЫ в Experimental Farm

Время (UTC), дата Ветер
(напр.,м/с)
 
Видим.   Явления Облачность Т
(С)
Тd
(С)
f
(%)
Тe
(С)
Тes
(С)
Комфортность P
(гПа)
Po
(гПа)
Тmin
(С)
Tmax
(С)
R
(мм)
R24
(мм)
S
(см)
06 12.10 ЮЗ 1 н/о н/о +34.7 +12.9 27 +35 +35 очень
жарко
1012.1 1012.0
09 12.10 Ю 1 н/о н/о +41.3 +13.0 19 +38 +38 очень
жарко
1010.7 1011.0
12 12.10 В 2 н/о н/о +37.3 +16.2 29 +39 +39 очень
душно
1010.0 1010.0
15 12.10 В 1 н/о н/о +32.2 +20.8 51 +39 +39 очень
душно
1010.6 1011.0
18 12.10 Ю 2 н/о н/о +30.9 +21.4 57 +39 +39 очень
душно
1011.7 1012.0
21 12.10 Ю 1 н/о н/о +29.3 +20.7 60 +36 +36 очень
душно
1012.1 1012.0 +26.7 +43.2
00 13.10 В 1 н/о н/о +27.0 +23.1 79 +36 +36 очень
душно
1011.9 1012.0
03 13.10 Ю 2 н/о н/о +26.8 +23.1 80 +36 +36 очень
душно
1012.7 1013.0
06 13.10 С 2 н/о н/о +32.0 +23.0 59 +42 +42 опасность
перегрева
1014.7 1015.0
09 13.10 В 1 н/о н/о +35.6 +19.0 38 +40 +40 очень
душно
1013.6 1014.0
12 13.10 СВ 1 н/о н/о +35.1 +23.5 51 +46 +46 опасность
перегрева
1012.4 1012.0
15 13.10 В 1 н/о н/о +31.9 +21.8 55 +40 +40 очень
душно
1012.6 1013.0
18 13.10 ЮВ 1 н/о н/о +30.9 +23.3 64 +41 +41 опасность
перегрева
1013.7 1014.0
21 13.10 Ю 2 н/о н/о +29.8 +24.4 73 +42 +42 опасность
перегрева
1013.8 1014.0 +26.2 +37.1
00 14.10 ЮВ 1 н/о н/о +28.2 +24.5 80 +40 +40 очень
душно
1013.7 1014.0
03 14.10 ЮВ 1 н/о н/о +26.6 +24.6 89 +38 +38 очень
душно
1014.6 1015.0
06 14.10 Ю 2 н/о н/о +32.3 +22.6 57 +42 +42 опасность
перегрева
1015.5 1016.0
09 14.10 З 1 н/о н/о +39.0 +19.9 33 +38 +38 очень
жарко
1013.5 1014.0
12 14.10 СВ 2 н/о н/о +36.3 +18.8 36 +41 +41 опасность
перегрева
1011.9 1012.0
15 14.10 В 1 н/о н/о +32.3 +21.8 54 +41 +41 опасность
перегрева
1012.0 1012.0
18 14.10 Ю 2 н/о н/о +31.5 +21.5 55 +39 +39 очень
душно
1013.3 1013.0
21 14.10 ЮВ 1 н/о н/о +29.8 +22.7 66 +39 +39 очень
душно
1013.3 1013.0 +26.5 +40.2
00 15.10 ЮВ 3 н/о н/о +29.4 +23.5 71 +40 +40 очень
душно
1013.1 1013.0
03 15.10 Ю 2 н/о н/о +28.1 +21.7 68 +36 +36 очень
душно
1014.1 1014.0
06 15.10 СВ 4 н/о н/о +29.1 +14.3 40 +31 +31 жарко 1017.7 1018.0
09 15.10 В 2 н/о н/о +34.5 +14.6 30 +36 +36 душно 1015.0 1015.0
12 15.10 В 2 н/о н/о +34.4 +15.7 33 +37 +37 очень
душно
1013.4 1013.0
15 15.10 ЮВ 1 н/о н/о +31.6 +15.1 37 +34 +34 душно 1014.1 1014.0
18 15.10 ЮВ 1 н/о н/о +30.0 +20.3 56 +37 +37 очень
душно
1014.8 1015.0
21 15.10 ЮВ 1 н/о н/о +28.3 +17.6 52 +32 +32 душно 1014.1 1014.0 +26.7 +35.6
00 16.10 ЮЗ 2 н/о н/о +27.5 +16.0 49 +31 +31 душно 1013.8 1014.0
03 16.10 ЮВ 1 н/о н/о +25.6 +16.7 58 +29 +29 душно 1014.8 1015.0
06 16.10 С 1 н/о н/о +32.8 +16.0 37 +36 +36 очень
душно
1016.2 1016.0
09 16.10 СВ 1 н/о н/о +36.6 +11.8 22 +36 +36 очень
жарко
1014.2 1014.0
12 16.10 СВ 1 н/о н/о +36.7 +9.1 19 +35 +35 очень
жарко
1012.9 1013.0
15 16.10 В 1 н/о н/о +30.7 +13.0 34 +32 +32 жарко 1012.9 1013.0
18 16.10 ЮВ 2 н/о н/о +30.7 +14.7 38 +33 +33 душно 1013.7 1014.0
21 16.10 ЮВ 1 н/о н/о +26.9 +16.8 54 +31 +31 душно 1013.2 1013.0 +25.5 +37.9
00 17.10 ЮЗ 2 н/о н/о +27.6 +16.3 50 +31 +31 душно 1012.6 1013.0
03 17.10 ЮЗ 1 н/о н/о +25.0 +16.5 59 +28 +28 жарко 1013.4 1013.0
06 17.10 ЮЗ 3 н/о н/о +32.5 +12.0 29 +33 +33 жарко 1014.5 1015.0
09 17.10 Ю 2 н/о н/о +37.4 +9.1 18 +36 +36 очень
жарко
1012.8 1013.0
12 17.10 СВ 2 н/о н/о +37.0 +9.4 19 +36 +36 очень
жарко
1011.0 1011.0
15 17.10 ЮВ 1 н/о н/о +32.5 +13.3 31 +33 +33 жарко 1011.4 1011.0
18 17.10 Ю 2 н/о н/о +30.4 +17.8 47 +35 +35 очень
душно
1012.3 1012.0
21 17.10 Ю 3 н/о н/о +29.0 +18.1 52 +34 +34 очень
душно
1012.2 1012.0 +24.9 +38.7
00 18.10 Ю 1 н/о н/о +27.4 +17.5 55 +32 +32 очень
душно
1011.9 1012.0
03 18.10 ЮВ 1 н/о н/о +24.5 +17.8 66 +29 +29 душно 1012.6 1013.0
06 18.10 Ю 2 н/о н/о +31.2 +16.7 42 +35 +35 очень
душно
1013.5 1014.0
09 18.10 С 2 н/о н/о +37.2 +13.2 24 +37 +37 очень
жарко
1012.1 1012.0
12 18.10 В 2 н/о н/о +35.6 +14.3 28 +37 +37 душно 1010.6 1011.0
15 18.10 ЮВ 2 н/о н/о +31.1 +17.8 45 +35 +35 очень
душно
1011.2 1011.0
18 18.10 Ю 2 н/о н/о +29.7 +16.9 46 +33 +33 душно 1012.3 1012.0
21 18.10 ЮВ 1 н/о н/о +27.6 +19.7 62 +33 +33 очень
душно
1012.7 1013.0 +24.4 +38.4
00 19.10 Ю 2 н/о н/о +26.3 +21.7 76 +34 +34 очень
душно
1012.6 1013.0
03 19.10 Ю 1 н/о н/о +26.0 +22.2 80 +34 +34 очень
душно
1013.4 1013.0

 

Местоположение метеостанции Experimental Farm (Кувейт): широта 29.29 долгота 47.94 высота над уровнем моря 21 м.

В архиве по умолчанию представлена погода в Experimental Farm за последнюю неделю. Архивные данные за месяц целиком и за предыдущие месяцы, начиная с января 2011 года, Вы можете получить, выбрав интересующий диапазон дат из раскрывающегося списка и нажав кнопку "Ввод!".


*Определитесь, кто Вы:
робот инопланетянин человек

Внимание! Время в таблицах - всемирное. Для получения местного времени необходимо прибавить поправку, которая в Experimental Farm равна 3 ч.

Смотрите также архив погоды в соседних городах и на ближайших метеорологических станциях:

Погода в Kuwait (Кувейт) (8 км)
Погода в Kuwait City (Кувейт) (12 км)
Погода в Al-Shuaiba (Кувейт) (17 км)
Погода в Sulaibiya (Кувейт) (21 км)
Погода в Jahra (Кувейт) (26 км)
Погода в Failaka Island (Кувейт) (39 км)
Погода в Minagish (Кувейт) (47 км)
Погода в Jal Aliyah (Кувейт) (50 км)
Погода в Sabriyah (Кувейт) (52 км)
Погода в Juluiah Port (Кувейт) (57 км)

Пояснения к столбцам:

Ветер - указаны скорость ветра в м/с - средняя за 10 мин, порывы в срок и между сроками (в фигурных скобках) и направление, откуда дует ветер: С - северный, СВ - северо-восточный, В - восточный, ЮВ - юго-восточный, Ю - южный, ЮЗ - юго-западный, З - западный, СЗ - северо-западный.
Видимость - горизонтальная дальность видимости в метрах или километрах. При видимости от 1 до 10 км при отсутствии осадков обычно наблюдается дымка, при ухудшении видимости до 1 км и менее - туман. В сухую погоду видимость может ухудшаться дымом, пылью или мглою.
Явления - указаны атмосферные явления, наблюдавшиеся в срок или в последний час перед сроком; фигурными скобками обозначены явления, наблюдавшиеся между сроками (за 1-3 часа до срока); квадратными скобками обозначены град или гололедные отложения с указанием их диаметра в мм.
Облачность - указаны через наклонную черту общая и нижняя облачность в баллах и высота нижней границы облаков в метрах; квадратными скобками обозначены формы облаков: Ci - перистые, Cs - перисто-слоистые, Cc - перисто-кучевые, Ac - высококучевые, As - высокослоистые, Sc - слоисто-кучевые, Ns - слоисто-дождевые, Cu - кучевые, Cb - кучево-дождевые. Подробнее классификацию облаков см. в Атласе облаков (PDF).
T - Температура воздуха - температура, измеренная на высоте 2 м над землей.
Td - Температура точки росы - температура, при понижении до которой содержащийся в воздухе водяной пар достигнет насыщения.
f - Относительная влажность воздуха - влажноcть воздуха, измеренная на высоте 2 м над землей.
Te - Эффективная температура - температура, которую ощущает одетый по сезону человек в тени. Характеристика душности погоды. При расчете учитывается влияние влажности воздуха и скорости ветра на теплоощущения человека.
Tes - Эффективная температура на солнце - температура, которую ощущает человек, с поправкой на солнечный нагрев. Характеристика знойности погоды. Зависит от высоты солнца над горизонтом, облачности и скорости ветра. Ночью, в пасмурную погоду, а также при ветре 12 м/с и более поправка равна нулю.
P - Атмосферное давление - приведенное к уровню моря атмосферное давление.
Po - Атмосферное давление - измеренное на уровне метеостанции атмосферное давление.
Tmin - Минимальная температура - минимум температуры воздуха на высоте 2 м над землей.
Tmax - Максимальная температура - максимум температуры воздуха на высоте 2 м над землей.
R - Количество осадков - Количество выпавших осадков за период времени, мм. При наведении курсора мыши на число - период времени, за который выпало указанное количество осадков.
R24 - Количество осадков - Количество выпавших осадков за 24 часа, мм.
S - Снежный покров - Высота снежного покрова, см. При наведении курсора мыши на число - состояние снежного покрова и степень покрытия местности в баллах.